Home   Weather   43°05'N, 77°23'W   Past weeks
Flag for USA

Past Weather in 43°05'N, 77°23'W, USA — Yesterday and Last 2 Weeks

Now
45 °F

Scattered clouds.


Feels Like: 41 °F
Forecast: 60 / 40 °F
Wind: 7 mph from Southwest

Location: Greater Rochester International Airport

Current Time: Oct 15, 2019 at 9:49:34 am

Latest Report: Oct 15, 2019 at 8:54 am


Visibility: 10 mi

Pressure: 30.19 "Hg

Humidity: 86%

Dew Point: 41 °F

Location of 43°05'N, 77°23'WLocation

Past Weather in 43°05'N, 77°23'W — Graph

°F

43°05'N, 77°23'W Temperature Yesterday

Maximum temperature yesterday: 54 °F (at 2:54 am)
Minimum temperature yesterday: 43 °F (at 9:54 pm)
Average temperature yesterday: 49 °F

High & Low Weather Summary for the Past Weeks

 TemperatureHumidityPressure
High88 °F (Oct 1, 1:54 pm)100% (Oct 2, 7:26 am)30.47 "Hg (Oct 2, 7:26 am)
Low38 °F (Oct 13, 6:54 am)28% (Oct 11, 2:54 pm)29.83 "Hg (Oct 2, 3:54 am)
Average56 °F76%30.12 "Hg
* Reported Sep 30 7:54 am — Oct 15 7:54 am, 43°05'N, 77°23'W. Weather by CustomWeather, © 2019

Note: Actual official high and low records may vary slightly from our data, if they occured in-between our weather recording intervals... More about our weather records

Advertising

43°05'N, 77°23'W Weather History for the Previous 24 Hours

Scroll right to see more
 ConditionsComfort  
Time TempWeatherWind HumidityBarometerVisibility
7:54 am
Tue, Oct 15
40 °FPartly sunny.7 mph89%30.18 "Hg10 mi
6:54 am40 °FPassing clouds.6 mph89%30.16 "Hg10 mi
5:54 am41 °FClear.5 mph89%30.16 "Hg10 mi
4:54 am41 °FPassing clouds.5 mph93%30.15 "Hg10 mi
3:54 am43 °FPassing clouds.5 mph89%30.14 "Hg10 mi
2:54 am44 °FOvercast.5 mph89%30.14 "Hg10 mi
1:54 am45 °FOvercast.6 mph86%30.13 "Hg10 mi
12:54 am44 °FOvercast.5 mph89%30.12 "Hg10 mi
11:54 pm
Mon, Oct 14
44 °FPassing clouds.6 mph85%30.12 "Hg10 mi
10:54 pm44 °FOvercast.5 mph85%30.11 "Hg10 mi
9:54 pm43 °FPassing clouds.6 mph86%30.10 "Hg10 mi
8:54 pm45 °FOvercast.5 mph76%30.09 "Hg10 mi
7:54 pm47 °FPassing clouds.6 mph69%30.08 "Hg10 mi
6:54 pm48 °FPartly cloudy.5 mph63%30.07 "Hg10 mi
5:54 pm50 °FPartly sunny.7 mph54%30.05 "Hg10 mi
4:54 pm50 °FMostly cloudy.10 mph52%30.03 "Hg10 mi
3:54 pm51 °FPartly sunny.13 mph48%30.02 "Hg10 mi
2:54 pm52 °FPartly sunny.12 mph50%30.00 "Hg10 mi
1:54 pm51 °FMostly cloudy.13 mph48%30.00 "Hg10 mi
12:54 pm51 °FPartly sunny.13 mph54%30.00 "Hg10 mi
11:54 am50 °FOvercast.10 mph63%29.99 "Hg10 mi
10:54 am50 °FMostly cloudy.8 mph66%29.98 "Hg10 mi
9:54 am51 °FBroken clouds.10 mph59%29.96 "Hg10 mi
Weather by CustomWeather, © 2019

See weather overview